Lapse_Rate
7.3 6.5 6.5 6.5 6.5 6.5 6.5 6.5 6.5 6.5 6.5 6.5 6.5 6.5 6.5 7.0 7.2 7.1 7.4 7.6 7.9 8.2 8.7 9.0 9.1 9.2 9.4 9.3 9.2 9.0 6.2 5.3 5.3 5.8 6.0 8.2 7.0 9.4 9.5 8.8 6.9 6.6 6.6 4.1
6.5 6.5 6.5 6.5 6.5 6.5 6.5 6.5 6.5 6.5 6.5 6.5 6.5 6.5 6.5 6.5 6.7 7.2 7.4 7.5 7.9 8.3 8.5 8.7 8.8 9.0 9.1 9.1 9.1 5.6 3.8 2.9 2.1 2.9 4.8 6.6 6.5 8.3 9.4 9.7 6.9 7.1 7.6 6.9
6.5 6.5 6.6 6.5 6.5 6.5 6.5 6.5 6.5 6.5 6.5 6.5 6.5 6.5 6.5 6.5 7.0 7.3 7.6 7.8 8.0 8.1 8.2 8.4 8.5 8.7 9.0 8.9 6.0 3.9 3.0 3.1 2.1 4.9 6.0 5.3 4.3 6.1 7.4 8.5 8.2 7.5 7.1 8.4
6.5 6.7 6.5 6.5 6.5 6.5 6.5 6.5 6.5 6.5 6.5 6.5 6.5 6.5 6.5 6.5 6.5 6.5 7.0 7.5 7.9 8.1 8.3 8.4 8.6 8.7 8.9 8.9 5.3 4.9 4.2 4.0 3.4 4.8 6.1 6.1 7.0 8.1 9.3 9.6 9.7 9.6 7.3 8.0
6.5 6.5 6.5 6.5 6.5 6.5 6.5 6.5 6.5 6.5 6.5 6.5 6.5 6.5 6.5 6.5 6.5 6.5 6.7 7.3 7.7 8.1 8.3 8.5 8.7 8.7 8.9 8.9 6.1 3.8 3.1 4.0 3.3 4.0 5.5 6.6 5.9 6.9 8.1 9.6 9.1 8.8 8.6 9.2
6.5 7.2 6.6 6.5 6.5 6.5 6.5 6.5 6.5 6.5 6.5 6.5 6.5 6.5 6.5 6.5 6.5 6.5 6.7 7.3 7.7 8.0 8.2 8.5 8.8 8.6 8.7 8.8 5.0 1.1 -2.7 0.7 3.6 5.2 5.4 5.2 5.4 5.9 7.9 9.2 8.1 7.6 7.5 7.8
6.5 6.5 6.6 6.8 6.5 6.5 6.5 6.5 6.5 6.5 6.5 6.5 6.5 6.5 6.5 6.5 6.5 6.5 6.6 7.3 7.8 8.0 8.2 8.4 8.3 8.4 8.6 7.2 5.2 2.2 1.4 2.9 3.5 4.1 5.8 4.9 5.0 5.5 6.9 8.8 8.8 6.4 6.0 6.4
6.5 6.5 6.5 6.5 6.5 6.5 6.5 6.5 6.5 6.5 6.5 6.5 6.5 6.5 6.5 6.5 6.9 7.2 7.4 7.6 7.8 8.0 8.4 8.4 8.7 8.7 8.7 8.4 4.6 1.6 1.3 4.5 4.2 4.5 4.9 4.2 5.3 7.5 9.0 9.1 7.7 7.1 5.2 5.2
6.5 6.5 6.5 6.5 6.5 6.5 6.5 6.5 6.5 6.5 6.5 6.5 6.5 6.5 6.5 6.5 6.5 6.8 7.1 7.3 7.5 7.9 8.3 8.4 8.7 8.8 8.9 8.8 6.6 4.1 4.9 5.0 4.9 5.7 6.3 4.6 6.0 6.4 8.9 8.6 7.4 7.4 4.5 3.9
6.5 6.5 6.5 6.5 6.7 6.6 6.5 6.5 6.5 6.5 6.5 6.5 6.5 6.5 6.5 6.5 6.5 6.5 6.6 7.0 7.5 8.0 8.2 8.5 8.6 8.6 8.5 8.8 5.9 5.2 5.9 5.9 5.3 5.7 6.8 5.9 7.7 7.6 7.9 8.6 8.0 7.8 7.2 5.9
6.5 6.5 6.5 6.5 6.5 6.5 6.5 6.5 6.5 6.5 6.5 6.5 6.5 6.5 6.5 6.5 6.5 6.5 6.6 7.3 7.6 7.9 8.2 8.5 8.8 8.8 9.0 9.1 8.8 4.2 3.7 6.1 5.2 6.3 7.9 8.4 7.3 5.8 8.2 9.2 9.3 9.2 8.3 7.7
6.5 6.5 6.5 6.5 6.5 6.5 6.5 6.5 6.5 6.5 6.5 6.5 6.5 6.5 6.5 6.5 6.5 6.9 7.0 7.4 7.8 8.1 8.3 8.5 8.7 8.8 8.9 8.9 5.8 4.2 3.7 5.0 5.7 6.9 7.4 8.2 6.6 7.1 9.2 9.3 9.3 9.3 9.1 9.2
6.5 6.5 6.5 6.5 6.5 6.5 6.5 6.5 6.5 6.5 6.5 6.5 6.5 6.5 6.5 6.6 6.6 7.1 7.0 7.5 7.8 8.0 8.2 8.4 8.5 8.6 8.7 8.8 7.6 6.9 6.9 7.0 6.0 5.8 7.9 7.6 7.7 8.5 9.2 9.3 9.3 9.4 9.4 9.4
6.3 6.5 6.5 6.5 6.5 6.5 6.5 6.5 6.5 6.5 6.5 6.5 6.5 6.5 6.5 6.5 6.5 6.8 7.2 7.5 7.8 7.9 8.0 8.3 8.3 8.4 8.7 7.8 5.8 6.0 5.3 5.8 8.7 8.4 9.1 8.1 8.6 9.2 9.3 9.3 9.3 9.3 9.4 9.4
6.5 6.5 6.5 6.5 6.5 6.5 6.5 6.5 6.5 6.5 6.5 6.5 6.5 6.5 6.5 6.5 6.5 7.0 7.4 7.5 7.6 7.7 8.0 8.1 8.2 8.3 8.5 8.2 5.5 6.4 7.6 8.1 7.3 8.0 9.2 8.1 8.9 9.3 9.3 9.3 9.3 9.4 9.4 9.5
6.5 6.5 6.5 6.5 6.5 6.5 6.5 6.5 6.5 6.5 6.5 6.5 6.5 6.5 6.5 7.0 7.3 7.2 7.4 7.4 7.4 7.7 8.0 8.1 8.2 8.3 8.3 8.3 7.1 8.0 7.1 5.9 6.4 6.7 7.0 7.6 8.5 9.1 8.4 9.2 9.3 9.2 9.3 9.4
6.5 6.5 6.5 6.5 6.5 6.5 6.5 6.5 6.5 6.5 6.5 6.5 6.5 6.5 6.4 6.5 6.7 7.2 7.4 7.6 7.5 7.8 8.0 8.1 8.3 8.3 7.6 7.4 7.9 7.4 7.5 5.7 6.1 6.1 6.0 6.8 8.3 8.2 7.8 8.5 9.2 9.2 9.2 9.3
6.5 6.5 6.5 6.5 6.5 6.5 6.5 6.5 6.5 6.5 6.5 6.5 6.5 6.5 6.7 6.8 7.3 7.8 8.0 7.9 7.8 7.9 8.1 8.3 8.6 8.5 8.0 7.8 6.1 7.3 5.4 3.3 4.7 7.9 6.3 6.9 6.2 7.4 6.8 7.1 7.7 7.7 9.2 9.1
6.5 6.5 6.5 6.5 6.5 6.5 6.5 6.5 6.5 6.5 6.5 6.5 6.5 6.5 7.1 7.4 7.5 7.4 8.3 8.3 8.3 8.4 8.5 8.5 8.7 8.8 8.8 6.7 5.9 5.2 3.6 3.2 5.3 5.0 5.2 5.8 5.3 6.6 6.2 6.7 6.4 8.4 8.9 8.8
6.5 6.5 6.5 6.5 6.5 6.5 6.5 6.5 7.1 6.7 6.5 6.7 6.9 6.7 6.9 7.3 6.5 6.5 8.3 8.4 8.1 8.3 6.8 6.7 8.7 8.8 8.7 8.7 6.8 4.6 4.2 4.1 5.9 5.4 5.8 5.9 5.2 5.8 6.3 6.9 6.7 8.3 9.1 9.1
6.5 6.5 6.5 6.5 6.5 6.5 6.5 6.8 7.3 6.5 6.5 7.1 7.4 7.4 7.4 6.6 7.4 8.0 8.5 8.2 8.6 8.6 7.7 6.9 7.7 8.4 8.5 8.6 6.6 4.8 5.2 4.8 6.5 5.0 5.7 6.9 6.8 6.8 6.4 7.5 7.7 8.9 9.0 9.0
6.5 6.5 6.5 6.5 6.5 6.5 7.0 6.8 6.5 6.7 7.3 7.5 7.6 7.7 7.5 7.8 8.1 8.2 8.4 8.4 8.4 8.6 8.6 8.7 6.5 6.6 8.0 8.4 8.2 8.2 8.1 8.0 7.6 6.1 6.4 7.1 6.4 6.9 6.9 6.4 8.1 8.4 8.8 8.7
6.5 6.5 6.5 6.5 6.5 6.8 7.5 7.2 7.7 7.8 7.5 7.7 7.8 8.0 8.1 8.0 8.1 8.3 8.3 8.4 8.5 8.5 8.7 8.9 8.8 8.7 8.8 7.4 7.7 8.4 8.6 8.7 6.8 5.7 5.6 6.2 7.4 7.6 7.2 6.0 6.8 8.0 8.0 8.6
6.5 6.9 6.5 6.5 6.6 6.7 7.4 7.8 8.0 8.1 7.9 8.2 8.3 8.3 8.3 8.1 8.2 8.3 8.4 8.4 8.4 8.6 8.3 8.6 8.8 8.6 8.6 8.6 7.9 8.1 8.2 8.3 7.2 8.0 8.2 8.5 8.5 7.2 8.3 8.6 8.4 7.1 6.6 8.3
6.8 6.7 6.5 6.5 6.7 7.2 7.4 7.8 7.9 8.1 8.3 8.3 8.4 8.5 8.4 8.3 8.3 8.4 8.4 8.1 8.4 8.6 8.8 8.9 8.7 8.6 7.8 6.6 4.2 4.1 5.5 7.7 7.7 8.3 8.4 8.6 9.0 7.8 7.8 7.8 7.6 9.0 9.0 7.2
7.0 6.5 6.5 6.5 7.0 7.0 7.2 8.0 8.2 8.0 8.1 8.3 8.3 8.3 8.5 8.4 8.4 8.5 8.4 8.4 8.3 8.0 7.7 8.5 8.7 8.7 8.4 6.7 5.2 5.2 4.1 4.4 6.7 6.9 7.0 7.3 6.1 4.9 4.0 3.5 2.3 -2.9 -3.2 -4.3
Wind_Speed
12 12 15 18 16 17 10 11 16 14 4 11 15 13 12 10 10 12 12 13 17 20 18 16 16 15 13 12 10 9 9 7 6 3 4 6 6 4 4 4 2 4 9 9
11 17 18 6 11 11 16 16 19 16 9 10 13 12 14 14 12 11 13 14 16 17 16 16 16 16 16 12 10 12 12 12 11 6 6 7 3 2 4 4 4 5 8 12
20 18 9 11 13 15 17 18 17 17 11 10 14 16 15 11 6 8 10 10 15 17 18 18 17 16 16 15 13 12 12 9 8 8 7 5 2 4 5 5 6 6 8 10
17 19 11 12 15 15 17 14 14 17 17 15 10 12 7 7 9 5 3 8 12 16 17 17 17 16 15 15 14 5 7 2 4 7 8 9 5 4 5 6 6 5 8 8
16 13 14 19 20 14 15 6 9 12 14 16 16 9 14 4 9 7 5 4 7 13 15 17 18 15 16 18 14 8 10 12 13 13 12 10 8 5 6 6 6 8 7 8
20 6 10 16 15 14 6 8 10 9 13 15 20 12 14 11 2 6 2 7 8 6 8 13 13 20 20 20 18 17 24 21 9 10 13 12 10 7 6 7 5 5 5 6
17 17 14 10 11 12 10 13 10 11 11 14 5 7 13 12 6 8 9 10 8 2 7 11 15 18 20 23 19 6 10 10 4 11 10 10 7 5 7 7 6 4 3 3
18 17 20 16 20 15 18 16 11 13 12 12 7 9 11 2 4 5 6 6 3 5 9 11 17 18 18 21 14 10 17 8 6 5 10 7 5 3 5 4 5 4 3 3
12 18 4 14 17 19 13 10 15 13 10 9 9 6 7 13 10 11 5 3 6 8 10 12 14 15 16 18 14 13 12 5 2 1 6 7 7 5 3 1 2 3 6 5
14 12 10 10 9 8 14 8 10 10 16 10 10 7 9 9 9 5 2 5 7 9 11 12 11 15 15 15 12 10 10 7 3 4 5 6 6 5 2 3 6 8 9 11
14 10 10 9 12 14 12 13 12 11 5 9 9 7 4 4 7 8 5 6 8 10 11 12 12 11 11 11 11 8 7 6 1 6 6 6 6 6 5 5 7 8 10 10
19 11 14 14 6 4 9 16 20 12 14 12 10 11 7 5 4 4 4 4 7 8 9 10 12 11 9 6 6 8 10 8 9 6 6 6 6 7 7 6 7 8 8 8
10 13 13 17 9 7 11 13 11 10 8 12 10 7 5 8 8 5 1 6 7 7 9 9 10 9 11 10 10 11 12 12 10 10 8 8 9 9 7 6 7 7 8 8
4 7 14 15 17 15 19 17 14 14 11 13 13 6 9 10 11 10 2 3 7 9 8 8 8 9 12 12 11 10 11 12 12 11 10 10 10 9 8 7 7 7 6 7
5 7 9 15 9 8 12 19 15 16 18 10 10 8 8 9 12 9 5 3 7 9 9 7 8 10 10 12 14 13 13 14 14 12 11 11 10 9 8 8 8 7 6 6
1 2 4 7 7 11 12 10 13 14 6 6 5 11 8 6 8 10 10 2 7 9 10 8 7 10 11 13 15 15 14 14 15 15 13 12 11 11 9 8 8 7 6 6
1 1 5 7 5 9 11 3 9 6 3 3 7 7 6 7 8 12 10 8 3 6 7 9 8 9 11 12 12 14 12 11 12 13 15 13 13 11 10 9 9 7 6 7
2 1 3 1 7 12 8 4 2 6 5 4 6 5 6 7 4 10 11 10 8 3 6 8 8 11 10 11 10 8 9 11 13 13 13 14 14 12 11 10 9 7 7 9
2 5 2 6 9 4 5 4 3 5 8 6 5 7 9 9 3 9 15 12 11 10 9 8 7 11 13 14 10 9 10 11 14 14 15 16 15 13 13 11 11 9 9 8
3 4 7 4 10 10 10 5 1 3 7 6 6 8 10 10 7 10 15 14 11 8 7 9 8 5 7 12 13 13 13 13 14 13 13 12 13 15 14 13 12 11 10 9
3 4 11 9 9 4 4 3 3 9 4 6 7 8 9 7 7 10 12 13 11 9 9 8 5 3 4 7 9 11 11 13 12 11 12 14 14 13 13 12 11 11 10 9
4 4 5 5 8 8 3 4 4 5 2 6 7 9 8 8 9 11 13 13 12 12 8 8 7 8 5 3 6 8 9 8 8 11 13 14 14 12 11 12 11 11 11 11
3 4 3 5 4 6 7 8 5 5 5 8 8 8 9 10 11 12 13 14 12 12 12 10 8 7 4 5 4 8 7 7 7 10 12 13 14 12 11 13 12 10 9 10
3 1 2 5 5 7 7 7 6 7 7 7 8 8 8 10 12 11 10 11 11 10 9 9 10 10 9 7 7 8 7 6 8 11 11 11 12 12 11 9 10 9 9 9
5 5 3 10 8 8 6 6 5 6 5 6 6 7 8 9 9 11 11 9 10 11 10 9 7 6 6 5 7 9 9 8 10 11 10 11 11 11 8 9 6 8 7 5
1 5 3 4 6 6 7 6 4 5 6 7 8 8 8 7 9 10 10 9 10 9 9 8 8 7 5 2 2 3 5 5 8 8 6 7 5 4 2 2 1 9 9 9
Wind_Direction
201 234 229 242 239 263 305 271 270 272 252 281 281 288 290 294 239 244 232 209 215 217 211 198 189 193 206 200 189 179 170 155 152 164 297 273 251 237 243 244 231 205 179 186
208 231 244 263 274 252 253 260 263 265 285 261 273 289 293 289 275 256 244 214 227 223 209 195 185 189 198 188 165 149 153 177 156 157 194 266 300 265 258 227 199 209 182 180
231 238 238 213 230 240 245 257 270 270 258 264 279 276 262 268 268 277 259 236 214 228 216 199 188 189 186 164 153 172 177 180 176 173 186 205 179 236 230 226 211 200 199 196
240 242 201 219 237 237 251 249 256 261 258 256 213 273 269 259 302 279 259 214 227 220 223 208 190 187 178 144 149 84 13 149 152 199 204 210 225 242 251 243 222 191 202 200
224 218 227 238 239 234 254 275 275 280 262 254 242 257 273 205 270 292 61 32 282 229 215 205 199 171 137 149 130 119 32 270 215 211 226 211 210 207 239 237 225 232 178 199
255 178 241 241 237 225 234 245 243 256 250 236 244 241 264 265 286 319 291 329 310 312 202 203 191 143 150 159 166 173 173 236 205 222 227 207 187 197 222 224 204 216 204 194
223 225 220 235 230 193 218 241 240 221 220 243 213 227 263 307 282 284 314 326 354 118 156 172 145 147 165 174 176 203 203 203 149 218 211 172 169 191 213 227 224 208 178 200
219 226 217 210 231 225 211 236 249 254 250 236 169 246 259 20 274 246 294 350 29 136 130 150 156 164 178 188 186 198 189 148 150 184 205 166 163 199 228 206 215 210 173 188
230 230 186 224 216 222 218 232 253 271 255 278 269 203 247 244 256 250 277 64 95 116 135 146 160 157 186 193 207 207 201 151 23 66 218 153 173 187 239 214 220 178 124 118
220 244 192 171 188 216 256 231 211 229 262 251 253 246 269 288 277 336 132 112 123 133 137 140 143 151 190 193 200 214 205 216 310 242 189 140 163 158 135 129 118 140 138 143
226 224 179 177 206 210 196 227 240 289 291 277 263 261 89 284 337 24 54 100 125 130 139 142 153 163 172 183 194 210 197 224 288 202 154 148 135 117 146 145 130 143 140 155
216 220 236 205 186 287 236 222 215 228 214 240 283 282 16 34 17 38 87 117 123 133 133 134 149 165 160 159 155 191 191 179 186 169 143 150 122 128 144 153 142 150 142 144
174 224 227 238 198 204 232 230 239 244 281 261 263 238 80 42 41 50 67 147 152 145 141 149 167 166 150 146 140 158 164 165 165 164 166 150 142 143 155 160 147 146 149 149
210 237 234 236 232 215 204 226 217 223 226 232 221 173 47 19 22 33 30 190 177 183 167 172 178 166 147 151 151 157 159 166 171 164 169 159 158 157 157 154 152 156 161 161
201 243 232 255 272 258 217 217 205 215 233 261 252 132 37 2 6 21 44 157 188 200 193 179 180 170 166 165 170 173 177 176 167 166 173 166 160 164 155 163 162 159 172 170
192 244 249 218 232 224 220 236 196 209 221 228 216 114 36 17 11 36 44 107 195 217 215 186 190 178 177 170 171 175 183 179 171 169 170 170 171 169 169 170 166 165 179 187
316 296 230 199 209 172 174 162 194 144 171 278 201 60 5 25 24 32 29 27 322 233 234 221 206 199 189 191 189 191 181 171 174 179 165 171 175 175 173 169 168 166 199 201
290 298 272 114 188 215 71 117 274 126 108 73 92 52 22 12 12 44 30 14 6 343 276 247 228 212 209 204 199 190 172 175 180 186 170 172 170 177 173 174 169 170 204 212
272 270 204 246 229 93 154 158 172 218 116 46 29 22 9 352 132 87 22 19 353 340 328 307 268 236 208 208 197 180 182 183 197 188 179 178 171 179 176 179 172 182 204 210
163 245 254 198 254 229 77 114 10 279 164 49 23 21 3 344 259 52 359 359 355 353 330 308 291 236 214 207 195 196 192 192 202 193 188 189 180 177 182 181 179 183 206 211
195 227 229 219 245 106 50 323 235 217 80 38 28 25 14 18 4 333 345 353 353 6 13 359 326 279 226 199 196 203 200 205 210 184 186 194 187 189 181 185 182 189 202 218
254 243 193 239 242 217 25 137 275 34 58 20 19 18 360 355 356 355 345 344 342 340 357 9 9 356 333 218 210 223 225 225 203 188 192 200 192 193 185 185 195 196 207 212
227 339 3 340 50 80 64 74 72 29 30 28 24 26 14 10 3 349 340 331 332 335 335 335 337 343 3 355 277 260 257 244 228 204 202 202 203 201 199 194 200 203 211 233
127 96 124 195 107 97 91 88 69 54 40 31 31 24 19 0 360 356 347 341 331 328 323 316 327 323 319 319 308 291 284 262 241 227 208 210 209 202 206 212 214 198 201 215
33 170 112 97 117 117 94 70 52 57 45 29 20 14 3 13 353 353 356 349 342 328 321 318 304 311 323 343 319 320 301 251 237 231 212 207 206 202 198 225 224 227 225 240
223 122 148 82 87 68 87 88 69 55 33 13 353 347 353 11 347 355 1 350 352 350 336 328 311 312 307 321 335 352 351 324 249 240 202 194 171 117 118 181 184 27 65 51